Regional Weather Roundup
Issued by NWS Goodland, KS

Home | Current Version | Previous Version | Text Only | Print | Product List | Glossary Off
Versions: 1 2 3 4 5 6 7 8 9 10 11 12 13 14 15 16 17 18 19 20 21 22 23 24 25 26 27 28 29 30 31 32 33 34 35 36 37 38 39 40 41 42 43 44 45 46 47 48 49 50

000
ASUS43 KGLD 280208
RWRGLD

GOODLAND FORECAST AREA HOURLY WEATHER ROUNDUP
NATIONAL WEATHER SERVICE GOODLAND KS
700 PM MST SAT DEC 27 2014

...OFFICIAL OBSERVATIONS...

CITY           SKY/WX    TMP DP  RH WIND       PRES   REMARKS
GOODLAND KS    PTCLDY    15   8  73 W9        30.17S
HILL CITY KS   CLEAR     14  10  84 W7        30.24S
IMPERIAL NEB   PTCLDY    13   6  74 W8        30.16S
MCCOOK NEB     PTCLDY    13  10  88 SW8       30.18F
AKRON CO       PTCLDY    16   6  65 S10       30.09S WCI   4
BURLINGTON CO  PTCLDY     9   2  73 SW8       30.15S
LIMON CO       PTCLDY     4   1  88 CALM      30.09F
$$

...UNOFFICIAL OBSERVATIONS...

CITY           SKY/WX    TMP DP  RH WIND       PRES   REMARKS
COLBY KS       CLEAR      9   9 100 SW7       30.19F
NORTON KS      CLEAR     12   9  85 SW8       30.20F
SHARON SPRINGS   N/A     17  11  78 CALM        N/A
TRIBUNE KS     CLEAR     16  14  93 W8        30.19F
KIT CARSON CO    N/A     17  12  79 MISG        N/A
YUMA CO          N/A      9   2  73 CALM        N/A
$$



USA.gov is the U.S. government's official web portal to all federal, state and local government web resources and services.